Home > Weather > Graz > Past weeks

Flag for Austria Past Weather in Graz, Styria, Austria — Yesterday and Last 2 Weeks

Now
79 °F

Passing clouds.


Feels Like: 80 °F
Forecast: 57 / 78 °F
Wind: 9 mph from Southeast

Location: Graz-Thalerhof-Flughafen

Current Time: May 28, 2016 at 3:43:51 PM

Latest Report: May 28, 2016 at 2:50 PM


Visibility: N/A

Pressure: 29.89 "Hg

Humidity: 51%

Dew Point: 59 °F

Location of GrazLocation

Past Weather in Graz — Graph

°F

Graz Temperature Yesterday

Maximum temperature yesterday: 81 °F (at 4:50 PM)
Minimum temperature yesterday: 57 °F (at 1:20 AM)
Average temperature yesterday: 69 °F

High & Low Weather Summary for the Past Weeks

 TemperatureHumidityPressure
High81 °F (May 27, 4:50 PM)100% (May 14, 1:20 AM)30.15 "Hg (May 14, 1:20 AM)
Low36 °F (May 16, 5:20 AM)34% (May 23, 3:50 PM)29.39 "Hg (May 13, 2:20 PM)
Average59 °F69%29.91 "Hg
* Reported May 13 2:20 PM — May 28 2:20 PM, Graz, Weather by CustomWeather, © 2016

Note: Actual official high and low records may vary slightly from our data, if they occured in-between our weather recording intervals... More about our weather records

Advertising

Graz Weather History for the Previous 24 Hours

Scroll right to see more
 ConditionsComfort  
Time TempWeatherWind HumidityBarometerVisibility
2:20 PM
Sat, May 28
81 °FPassing clouds.10 mph51%29.89 "HgN/A
1:50 PM79 °FPassing clouds.7 mph51%29.89 "HgN/A
1:20 PM79 °FPassing clouds.7 mph54%29.89 "HgN/A
12:50 PM77 °FPassing clouds.7 mph57%29.92 "HgN/A
12:20 PM77 °FPassing clouds.7 mph57%29.92 "HgN/A
11:50 AM77 °FPassing clouds.5 mph54%29.92 "HgN/A
11:20 AM77 °FPassing clouds.2 mph54%29.92 "HgN/A
10:50 AM75 °FPassing clouds.3 mph61%29.95 "HgN/A
10:20 AM75 °FPassing clouds.1 mph57%29.95 "HgN/A
9:50 AM73 °FPassing clouds.2 mph61%29.95 "HgN/A
9:20 AM72 °FPassing clouds.2 mph65%29.95 "HgN/A
8:50 AM70 °FSunny.2 mph64%29.95 "Hg10 mi
8:20 AM70 °FSunny.2 mph64%29.95 "Hg10 mi
7:50 AM66 °FSunny.3 mph73%29.95 "Hg10 mi
7:20 AM64 °FPassing clouds.3 mph78%29.95 "HgN/A
6:50 AM63 °FSunny.1 mph88%29.95 "Hg10 mi
6:20 AM59 °FSunny.1 mph94%29.95 "Hg10 mi
5:50 AM59 °FClear.5 mph94%29.95 "Hg10 mi
5:20 AM59 °FCool.2 mph94%29.95 "HgN/A
4:50 AM59 °FPassing clouds.2 mph94%29.95 "HgN/A
4:20 AM61 °FPassing clouds.1 mph88%29.98 "HgN/A
3:50 AM61 °FPassing clouds.1 mph88%29.98 "HgN/A
3:20 AM63 °FPassing clouds.2 mph83%29.98 "HgN/A
2:50 AM64 °FPassing clouds.3 mph78%29.98 "HgN/A
2:20 AM64 °FPassing clouds.1 mph73%29.98 "HgN/A
1:50 AM64 °FPassing clouds.1 mph73%29.98 "HgN/A
1:20 AM66 °FMild.1 mph68%29.98 "HgN/A
12:50 AM66 °FPartly cloudy.2 mph68%29.98 "HgN/A
12:20 AM66 °FPassing clouds.3 mph68%29.98 "HgN/A
11:50 PM
Fri, May 27
66 °FPassing clouds.5 mph68%29.98 "HgN/A
11:20 PM68 °FClear.8 mph64%29.98 "Hg10 mi
10:50 PM70 °FClear.8 mph60%29.98 "Hg10 mi
10:20 PM70 °FPassing clouds.7 mph64%29.98 "HgN/A
9:50 PM70 °FPassing clouds.8 mph64%29.98 "HgN/A
9:20 PM72 °FPartly sunny.7 mph61%29.95 "HgN/A
8:50 PM72 °FPartly sunny.8 mph61%29.95 "HgN/A
8:20 PM73 °FPartly sunny.7 mph61%29.95 "HgN/A
7:50 PM75 °FPartly sunny.6 mph57%29.95 "HgN/A
7:20 PM75 °FPartly sunny.7 mph57%29.95 "HgN/A
6:50 PM77 °FPartly sunny.6 mph54%29.92 "HgN/A
6:20 PM79 °FPartly sunny.7 mph51%29.95 "HgN/A
5:50 PM79 °FBroken clouds.7 mph48%29.95 "HgN/A
5:20 PM79 °FPartly sunny.9 mph45%29.95 "HgN/A
4:50 PM81 °FPartly sunny.6 mph48%29.95 "HgN/A
4:20 PM79 °FPartly sunny.8 mph48%29.95 "HgN/A
3:50 PM79 °FPartly sunny.7 mph48%29.95 "HgN/A
3:20 PM79 °FPartly sunny.7 mph48%29.95 "HgN/A
Weather by CustomWeather, © 2016

See weather overviewHow to use our weather pages